,,,PA_Meas_PMT16A,,PR_Meas_QMR101_102,,RH_Meas_QMH101,,SR_Meas_QMS101,,TA_Meas_QMH101,,GenWind,,GenWind,
date,time,status,PA,status,PR,status,RH,status,SR,status,TA,status,DirAvg,status,SpdAvg,
2008-07-13, 06:44:04,VALID,1005.22,VALID,0,VALID,91.4245,VALID,41.2308,VALID,24.8735,VALID,10,VALID,0.509766,
2008-07-13, 06:45:04,VALID,1005.27,VALID,0,VALID,91.4626,VALID,39.4207,VALID,24.8735,VALID,10,VALID,0.268359,
2008-07-13, 06:46:04,VALID,1005.38,VALID,0,VALID,91.455,VALID,35.901,VALID,24.8346,VALID,10,VALID,0.25625,
2008-07-13, 06:47:04,VALID,1005.43,VALID,0,VALID,91.6152,VALID,31.6773,VALID,24.8346,VALID,10,VALID,0.382422,
2008-07-13, 06:48:04,VALID,1005.46,VALID,0,VALID,91.7525,VALID,28.0571,VALID,24.8364,VALID,10,VALID,0,
2008-07-13, 06:49:04,VALID,1005.46,VALID,0,VALID,91.8365,VALID,26.7497,VALID,24.7937,VALID,10,VALID,0.359766,
2008-07-13, 06:50:04,VALID,1005.5,VALID,0,VALID,91.9509,VALID,24.9396,VALID,24.7761,VALID,10,VALID,0.108203,
2008-07-13, 06:51:04,VALID,1005.5,VALID,0,VALID,92.0424,VALID,21.4199,VALID,24.7975,VALID,10,VALID,0.154687,
2008-07-13, 06:52:04,VALID,1005.34,VALID,0,VALID,92.0653,VALID,18.0008,VALID,24.7761,VALID,10,VALID,0.00195313,
2008-07-13, 06:53:04,VALID,1004.92,VALID,0,VALID,92.2255,VALID,14.4811,VALID,24.7956,VALID,10,VALID,0.522656,
2008-07-13, 06:54:04,VALID,1005.52,VALID,0,VALID,92.3095,VALID,11.0619,VALID,24.7975,VALID,11,VALID,0.398047,
2008-07-13, 07:26:04,VALID,1005.89,VALID,0,VALID,94.3082,VALID,87.6909,VALID,24.4628,VALID,21,VALID,0.645312,
2008-07-13, 07:27:04,VALID,1005.93,VALID,0,VALID,94.415,VALID,87.2886,VALID,24.4822,VALID,21,VALID,0.563281,
2008-07-13, 07:28:04,VALID,1005.97,VALID,0,VALID,94.3311,VALID,84.3723,VALID,24.4822,VALID,31,VALID,0.285156,
2008-07-13, 07:29:04,VALID,1006.02,VALID,0,VALID,94.354,VALID,77.6346,VALID,24.4628,VALID,30,VALID,0.376172,
2008-07-13, 07:30:04,VALID,1006.04,VALID,0,VALID,94.3311,VALID,67.4777,VALID,24.4841,VALID,48,VALID,0.388281,
2008-07-13, 07:31:04,VALID,1006.07,VALID,0,VALID,94.209,VALID,56.8181,VALID,24.4646,VALID,57,VALID,0.383594,
2008-07-13, 07:32:04,VALID,1006.12,VALID,0,VALID,94.4303,VALID,46.8623,VALID,24.4822,VALID,25,VALID,1.02656,
2008-07-13, 07:33:04,VALID,1006.14,VALID,0,VALID,93.7895,VALID,38.415,VALID,24.4043,VALID,30,VALID,1.40977,
2008-07-13, 07:34:04,VALID,1006.15,VALID,0,VALID,93.7437,VALID,32.683,VALID,24.3849,VALID,23,VALID,1.23867,
2008-07-13, 07:35:04,VALID,1006.17,VALID,0,VALID,93.5911,VALID,31.0739,VALID,24.3459,VALID,74,VALID,1.18594,
2008-07-13, 07:36:04,VALID,1006.19,VALID,0,VALID,93.3928,VALID,33.8897,VALID,24.2875,VALID,70,VALID,1.06602,
2008-07-13, 07:37:04,VALID,1006.2,VALID,0,VALID,93.5682,VALID,37.8117,VALID,24.3283,VALID,116,VALID,1.05,
2008-07-13, 07:38:04,VALID,1006.25,VALID,0,VALID,93.3928,VALID,40.728,VALID,24.307,VALID,111,VALID,1.68203,
2008-07-13, 07:39:04,VALID,1006.29,VALID,0,VALID,93.141,VALID,40.8286,VALID,24.2681,VALID,93,VALID,1.61133,
2008-07-13, 07:40:04,VALID,1006.35,VALID,0.5,VALID,93.0113,VALID,38.415,VALID,24.2699,VALID,89,VALID,1.92852,
2008-07-13, 07:41:04,VALID,1006.24,VALID,1.5,VALID,92.9579,VALID,42.6387,VALID,24.1318,VALID,11,VALID,0.808203,
2008-07-13, 07:42:04,VALID,1006.02,VALID,1.5,VALID,93.1257,VALID,52.7955,VALID,23.9371,VALID,47,VALID,0.756641,
2008-07-13, 07:43:04,VALID,1005.99,VALID,0.5,VALID,93.5606,VALID,60.74,VALID,23.8416,VALID,352,VALID,1.40898,
2008-07-13, 07:44:04,VALID,1006,VALID,0,VALID,93.4767,VALID,64.9637,VALID,23.6859,VALID,347,VALID,1.05703,
2008-07-13, 07:45:04,VALID,1005.98,VALID,0,VALID,93.9649,VALID,68.9862,VALID,23.5868,VALID,39,VALID,0.650391,
2008-07-13, 07:46:04,VALID,1006.01,VALID,0,VALID,94.2777,VALID,73.1093,VALID,23.5691,VALID,77,VALID,0.685156,
2008-07-13, 07:47:04,VALID,1006.11,VALID,0,VALID,94.5371,VALID,77.3329,VALID,23.5284,VALID,69,VALID,0.984766,
2008-07-13, 07:48:04,VALID,1006.11,VALID,0,VALID,94.5066,VALID,81.8582,VALID,23.5478,VALID,63,VALID,1.08516,
2008-07-13, 07:49:04,VALID,1006.1,VALID,0,VALID,94.2853,VALID,85.9813,VALID,23.5089,VALID,31,VALID,1.57617,
2008-07-13, 07:50:04,VALID,1006.09,VALID,0,VALID,94.5066,VALID,89.8027,VALID,23.5284,VALID,25,VALID,0.721875,
2008-07-13, 07:51:04,VALID,1006.11,VALID,0,VALID,94.6057,VALID,93.9258,VALID,23.5496,VALID,49,VALID,0.974219,
2008-07-13, 07:52:04,VALID,1006.12,VALID,0,VALID,94.7507,VALID,97.8477,VALID,23.5478,VALID,11,VALID,0.891797,
2008-07-13, 07:53:04,VALID,1006.14,VALID,0,VALID,94.5981,VALID,101.87,VALID,23.5478,VALID,44,VALID,1.0293,
2008-07-13, 07:54:04,VALID,1006.16,VALID,0,VALID,94.7278,VALID,105.591,VALID,23.5868,VALID,36,VALID,0.776563,
2008-07-13, 07:55:04,VALID,1006.24,VALID,0,VALID,94.5981,VALID,108.407,VALID,23.6062,VALID,49,VALID,1.90625,
2008-07-13, 07:56:04,VALID,1006.26,VALID,0,VALID,94.3998,VALID,110.519,VALID,23.6452,VALID,61,VALID,1.32891,
2008-07-13, 07:57:04,VALID,1006.29,VALID,0,VALID,94.3921,VALID,113.033,VALID,23.7053,VALID,51,VALID,2.62617,
2008-07-13, 07:58:04,VALID,1006.29,VALID,0,VALID,94.3692,VALID,113.334,VALID,23.7832,VALID,76,VALID,1.67773,
2008-07-13, 07:59:04,VALID,1006.26,VALID,0,VALID,94.3692,VALID,111.927,VALID,23.8221,VALID,61,VALID,1.60039,
2008-07-13, 08:00:04,VALID,1006.27,VALID,0,VALID,94.1099,VALID,114.541,VALID,23.8416,VALID,23,VALID,2.58437,
2008-07-13, 08:01:04,VALID,1006.3,VALID,0,VALID,94.1099,VALID,110.217,VALID,23.9,VALID,52,VALID,1.82422,
2008-07-13, 08:02:04,VALID,1006.26,VALID,0,VALID,93.942,VALID,102.574,VALID,23.9195,VALID,70,VALID,2.31914,
2008-07-13, 08:03:04,VALID,1006.33,VALID,0,VALID,94.087,VALID,90.7078,VALID,23.9389,VALID,44,VALID,1.03164,
2008-07-13, 08:04:04,VALID,1006.38,VALID,0,VALID,94.2167,VALID,78.0368,VALID,23.9584,VALID,63,VALID,0.926562,
2008-07-13, 08:05:04,VALID,1006.36,VALID,0,VALID,94.0183,VALID,70.9974,VALID,23.9584,VALID,82,VALID,2.09063,
2008-07-13, 08:06:04,VALID,1006.32,VALID,0,VALID,93.7589,VALID,72.9081,VALID,23.9761,VALID,78,VALID,2.80039,
2008-07-13, 08:07:04,VALID,1006.33,VALID,0,VALID,93.1334,VALID,83.3667,VALID,24.015,VALID,45,VALID,2.78164,
2008-07-13, 08:08:04,VALID,1006.29,VALID,0,VALID,93.0113,VALID,100.462,VALID,24.0557,VALID,45,VALID,1.90781,
2008-07-13, 08:09:04,VALID,1006.22,VALID,0,VALID,92.6909,VALID,115.949,VALID,24.0168,VALID,75,VALID,2.56367,
2008-07-13, 08:10:04,VALID,1006.26,VALID,0,VALID,92.0196,VALID,123.491,VALID,23.9761,VALID,47,VALID,2.80664,
2008-07-13, 08:11:04,VALID,1006.14,VALID,0,VALID,91.9967,VALID,124.396,VALID,23.9584,VALID,40,VALID,1.5957,
2008-07-13, 08:12:04,VALID,1006.21,VALID,0,VALID,90.509,VALID,120.072,VALID,23.8593,VALID,75,VALID,4.53086,
2008-07-13, 08:13:04,VALID,1006.14,VALID,0,VALID,90.8676,VALID,115.547,VALID,23.8009,VALID,78,VALID,2.16445,
2008-07-13, 08:14:04,VALID,1006.07,VALID,0,VALID,90.4099,VALID,114.541,VALID,23.7619,VALID,46,VALID,3.23516,
2008-07-13, 08:15:04,VALID,1006.05,VALID,0,VALID,90.7303,VALID,115.446,VALID,23.6841,VALID,72,VALID,2.525,
2008-07-13, 08:16:04,VALID,1006.07,VALID,0,VALID,91.0888,VALID,119.77,VALID,23.6257,VALID,38,VALID,2.15625,
2008-07-13, 08:17:04,VALID,1005.99,VALID,0,VALID,90.2268,VALID,129.827,VALID,23.6257,VALID,33,VALID,4.27383,
2008-07-13, 08:18:04,VALID,1005.99,VALID,0,VALID,90.9286,VALID,137.47,VALID,23.6257,VALID,61,VALID,1.90273,
2008-07-13, 08:19:04,VALID,1006.01,VALID,0,VALID,91.0125,VALID,142.9,VALID,23.5885,VALID,66,VALID,1.9043,
2008-07-13, 08:20:04,VALID,1006.01,VALID,0,VALID,89.9826,VALID,143.704,VALID,23.5478,VALID,20,VALID,4.1207,
2008-07-13, 08:21:04,VALID,1006.03,VALID,0,VALID,90.86,VALID,142.196,VALID,23.5885,VALID,55,VALID,1.58164,
2008-07-13, 08:22:04,VALID,1006.09,VALID,0,VALID,90.9286,VALID,138.274,VALID,23.5478,VALID,45,VALID,1.91484,
2008-07-13, 08:23:04,VALID,1006.07,VALID,0,VALID,91.0965,VALID,137.57,VALID,23.5496,VALID,22,VALID,1.74336,
2008-07-13, 08:24:04,VALID,1006.12,VALID,0,VALID,91.1499,VALID,140.989,VALID,23.5089,VALID,54,VALID,1.3293,
2008-07-13, 08:25:04,VALID,1006.1,VALID,0,VALID,91.4321,VALID,146.42,VALID,23.5107,VALID,40,VALID,1.57891,
2008-07-13, 08:26:04,VALID,1006.13,VALID,0,VALID,91.0202,VALID,151.85,VALID,23.4894,VALID,58,VALID,1.68359,
2008-07-13, 08:27:04,VALID,1006.14,VALID,0,VALID,91.455,VALID,156.074,VALID,23.5284,VALID,37,VALID,0.723828,
2008-07-13, 08:28:04,VALID,1006.11,VALID,0,VALID,91.2338,VALID,159.392,VALID,23.5478,VALID,91,VALID,1.19102,
2008-07-13, 08:29:04,VALID,1006.12,VALID,0,VALID,90.8829,VALID,162.208,VALID,23.5868,VALID,27,VALID,2.47109,
2008-07-13, 08:30:04,VALID,1006.16,VALID,0,VALID,90.7913,VALID,165.024,VALID,23.6452,VALID,86,VALID,1.31523,
2008-07-13, 08:31:04,VALID,1006.14,VALID,0,VALID,91.4016,VALID,168.041,VALID,23.6646,VALID,46,VALID,1.10234,
2008-07-13, 08:32:04,VALID,1006.14,VALID,0,VALID,90.8295,VALID,171.46,VALID,23.7035,VALID,51,VALID,1.31484,
2008-07-13, 08:33:04,VALID,1006.13,VALID,0,VALID,90.9744,VALID,174.778,VALID,23.7619,VALID,21,VALID,1.41133,
2008-07-13, 08:34:04,VALID,1006.17,VALID,0,VALID,91.1728,VALID,178.6,VALID,23.7814,VALID,22,VALID,1.34883,
2008-07-13, 08:35:04,VALID,1006.19,VALID,0,VALID,90.6006,VALID,182.622,VALID,23.8203,VALID,73,VALID,1.28672,
2008-07-13, 08:36:04,VALID,1006.24,VALID,0,VALID,91.0736,VALID,186.444,VALID,23.8805,VALID,63,VALID,0.564453,
2008-07-13, 08:37:04,VALID,1006.22,VALID,0,VALID,90.4785,VALID,190.768,VALID,23.9,VALID,13,VALID,1.89453,
2008-07-13, 08:38:04,VALID,1006.25,VALID,0,VALID,91.0125,VALID,195.293,VALID,23.8982,VALID,79,VALID,0.439063,
2008-07-13, 08:39:04,VALID,1006.19,VALID,0,VALID,90.8905,VALID,200.422,VALID,23.9177,VALID,44,VALID,0.922266,
2008-07-13, 08:40:04,VALID,1006.19,VALID,0,VALID,90.7913,VALID,205.551,VALID,23.9584,VALID,100,VALID,0.938281,
2008-07-13, 08:41:04,VALID,1006.18,VALID,0,VALID,90.982,VALID,210.177,VALID,23.9973,VALID,55,VALID,0.813672,
2008-07-13, 08:42:04,VALID,1006.17,VALID,0,VALID,90.4099,VALID,214.802,VALID,23.9973,VALID,96,VALID,1.22773,
2008-07-13, 08:43:04,VALID,1006.2,VALID,0,VALID,91.2109,VALID,218.624,VALID,24.0345,VALID,41,VALID,0.979688,
2008-07-13, 08:44:04,VALID,1006.18,VALID,0,VALID,91.1651,VALID,222.345,VALID,24.0734,VALID,115,VALID,0.826172,
2008-07-13, 08:45:04,VALID,1006.15,VALID,0,VALID,90.86,VALID,223.753,VALID,24.1336,VALID,109,VALID,1.5293,
2008-07-13, 08:46:04,VALID,1006.1,VALID,0,VALID,91.0659,VALID,222.646,VALID,24.192,VALID,106,VALID,0.944922,
2008-07-13, 08:47:04,VALID,1006.1,VALID,0,VALID,90.1886,VALID,221.339,VALID,24.231,VALID,72,VALID,1.35625,
2008-07-13, 08:48:04,VALID,1006.12,VALID,0,VALID,91.1346,VALID,218.724,VALID,24.3088,VALID,82,VALID,0.478516,
2008-07-13, 08:49:04,VALID,1006.13,VALID,0,VALID,90.3412,VALID,217.317,VALID,24.307,VALID,131,VALID,1.20859,
2008-07-13, 08:50:04,VALID,1006.13,VALID,0,VALID,89.2121,VALID,222.445,VALID,24.3654,VALID,71,VALID,1.78867,
2008-07-13, 08:51:04,VALID,1006.15,VALID,0,VALID,90.0513,VALID,230.591,VALID,24.4433,VALID,110,VALID,1.26172,
2008-07-13, 08:52:04,VALID,1006.13,VALID,0,VALID,89.6012,VALID,235.116,VALID,24.5035,VALID,69,VALID,0.871484,
2008-07-13, 08:53:04,VALID,1006.17,VALID,0,VALID,88.8917,VALID,226.87,VALID,24.562,VALID,51,VALID,1.70508,
2008-07-13, 08:54:04,VALID,1006.16,VALID,0,VALID,88.5713,VALID,216.411,VALID,24.638,VALID,64,VALID,1.5582,
2008-07-13, 08:55:04,VALID,1006.14,VALID,0,VALID,88.0831,VALID,222.144,VALID,24.7159,VALID,67,VALID,1.98516,
2008-07-13, 08:56:04,VALID,1006.16,VALID,0,VALID,89.2426,VALID,226.468,VALID,24.7937,VALID,7,VALID,0.979297,
2008-07-13, 08:57:04,VALID,1006.18,VALID,0,VALID,88.7162,VALID,214.601,VALID,24.8327,VALID,41,VALID,1.22266,
2008-07-13, 08:58:04,VALID,1006.18,VALID,0,VALID,88.4798,VALID,189.36,VALID,24.893,VALID,53,VALID,1.61523,
2008-07-13, 08:59:04,VALID,1006.2,VALID,0,VALID,88.4492,VALID,159.795,VALID,24.9125,VALID,55,VALID,0.613281,
2008-07-13, 09:00:04,VALID,1006.25,VALID,0,VALID,88.2661,VALID,156.677,VALID,24.9319,VALID,87,VALID,1.13906,
2008-07-13, 09:01:04,VALID,1006.22,VALID,0,VALID,88.3272,VALID,168.946,VALID,24.9106,VALID,140,VALID,1.20273,
2008-07-13, 09:02:04,VALID,1006.28,VALID,0,VALID,88.3577,VALID,170.354,VALID,24.9495,VALID,82,VALID,1.33711,
2008-07-13, 09:03:04,VALID,1006.28,VALID,0,VALID,87.8923,VALID,165.124,VALID,24.9904,VALID,37,VALID,2.31172,
2008-07-13, 09:04:04,VALID,1006.36,VALID,0,VALID,88.5103,VALID,120.273,VALID,25.0488,VALID,11,VALID,1.23945,
2008-07-13, 09:05:04,VALID,1006.47,VALID,0,VALID,88.5179,VALID,85.2774,VALID,24.9904,VALID,45,VALID,2.20352,
2008-07-13, 09:06:04,VALID,1006.39,VALID,0,VALID,87.2744,VALID,77.6346,VALID,24.8132,VALID,15,VALID,3.01953,
2008-07-13, 09:07:04,VALID,1006.43,VALID,0,VALID,87.816,VALID,83.9701,VALID,24.7177,VALID,48,VALID,2,
2008-07-13, 09:08:04,VALID,1006.38,VALID,0,VALID,88.6781,VALID,109.312,VALID,24.6204,VALID,8,VALID,2.53203,
2008-07-13, 09:09:04,VALID,1006.4,VALID,0,VALID,88.5637,VALID,164.42,VALID,24.5425,VALID,93,VALID,3.09687,
2008-07-13, 09:10:04,VALID,1006.43,VALID,0,VALID,89.3723,VALID,246.178,VALID,24.4822,VALID,21,VALID,1.72422,
2008-07-13, 09:11:04,VALID,1006.45,VALID,0,VALID,89.6012,VALID,267.095,VALID,24.523,VALID,81,VALID,1.66602,
2008-07-13, 09:12:04,VALID,1006.43,VALID,0,VALID,89.7385,VALID,300.583,VALID,24.5425,VALID,72,VALID,1.94531,
2008-07-13, 09:13:04,VALID,1006.41,VALID,0,VALID,89.5097,VALID,306.415,VALID,24.599,VALID,90,VALID,1.8,
2008-07-13, 09:14:04,VALID,1006.37,VALID,0,VALID,89.3189,VALID,312.047,VALID,24.6788,VALID,82,VALID,1.71055,
2008-07-13, 09:15:04,VALID,1006.4,VALID,0,VALID,89.1053,VALID,316.371,VALID,24.6964,VALID,90,VALID,1.29727,
2008-07-13, 09:16:04,VALID,1006.39,VALID,0,VALID,88.6018,VALID,322.606,VALID,24.7761,VALID,21,VALID,2.55508,
2008-07-13, 09:17:04,VALID,1006.43,VALID,0,VALID,88.434,VALID,332.361,VALID,24.8735,VALID,106,VALID,2.3918,
2008-07-13, 09:18:04,VALID,1006.48,VALID,0,VALID,87.9228,VALID,335.88,VALID,24.93,VALID,70,VALID,2.01367,
2008-07-13, 09:19:04,VALID,1006.46,VALID,0,VALID,87.3583,VALID,341.914,VALID,24.9709,VALID,32,VALID,2.70625,
2008-07-13, 09:20:04,VALID,1006.54,VALID,0,VALID,88.9833,VALID,346.037,VALID,25.0682,VALID,18,VALID,1.33672,
2008-07-13, 09:21:04,VALID,1006.51,VALID,0,VALID,87.3125,VALID,351.97,VALID,25.0469,VALID,70,VALID,1.84531,
2008-07-13, 09:22:04,VALID,1006.49,VALID,0,VALID,87.2134,VALID,355.49,VALID,25.0682,VALID,6,VALID,1.9625,
2008-07-13, 09:23:04,VALID,1006.45,VALID,0,VALID,85.4282,VALID,362.429,VALID,25.0098,VALID,16,VALID,3.0957,
2008-07-13, 09:24:04,VALID,1006.49,VALID,0,VALID,85.5884,VALID,368.563,VALID,24.9514,VALID,37,VALID,3.97539,
2008-07-13, 09:25:04,VALID,1006.5,VALID,0,VALID,85.9775,VALID,376.206,VALID,24.9143,VALID,82,VALID,3.27578,
2008-07-13, 09:26:04,VALID,1006.53,VALID,0,VALID,85.1688,VALID,386.866,VALID,24.893,VALID,29,VALID,3.3,
2008-07-13, 09:27:04,VALID,1006.63,VALID,0,VALID,86.1682,VALID,391.089,VALID,24.9533,VALID,72,VALID,2.07148,
2008-07-13, 09:28:04,VALID,1006.64,VALID,0,VALID,87.3202,VALID,395.715,VALID,25.0507,VALID,14,VALID,1.39805,
2008-07-13, 09:29:04,VALID,1006.63,VALID,0,VALID,86.4734,VALID,401.548,VALID,25.0877,VALID,51,VALID,0.826563,
2008-07-13, 09:30:04,VALID,1006.64,VALID,0,VALID,85.1993,VALID,404.665,VALID,25.1072,VALID,69,VALID,2.13633,
2008-07-13, 09:31:04,VALID,1006.62,VALID,0,VALID,86.1377,VALID,400.643,VALID,25.2065,VALID,20,VALID,2.51055,
2008-07-13, 09:32:04,VALID,1006.61,VALID,0,VALID,86.8319,VALID,401.749,VALID,25.1637,VALID,19,VALID,1.09414,
2008-07-13, 09:33:04,VALID,1006.57,VALID,0,VALID,83.7727,VALID,416.129,VALID,25.1248,VALID,85,VALID,2.56797,
2008-07-13, 09:34:04,VALID,1006.6,VALID,0,VALID,85.4206,VALID,407.783,VALID,25.1461,VALID,32,VALID,1.4332,
2008-07-13, 09:35:04,VALID,1006.61,VALID,0,VALID,85.5808,VALID,410.8,VALID,25.224,VALID,83,VALID,1.33594,
2008-07-13, 09:36:04,VALID,1006.61,VALID,0,VALID,84.8026,VALID,416.733,VALID,25.187,VALID,85,VALID,1.93594,
2008-07-13, 09:37:04,VALID,1006.58,VALID,0,VALID,85.4511,VALID,395.514,VALID,25.2649,VALID,43,VALID,1.125,
2008-07-13, 09:38:04,VALID,1006.57,VALID,0,VALID,85.2833,VALID,383.547,VALID,25.2435,VALID,57,VALID,1.97656,
2008-07-13, 09:39:04,VALID,1006.5,VALID,0,VALID,83.6659,VALID,381.837,VALID,25.226,VALID,81,VALID,3.73828,
2008-07-13, 09:40:04,VALID,1006.48,VALID,0,VALID,85.3977,VALID,381.837,VALID,25.187,VALID,6,VALID,1.80938,
2008-07-13, 09:41:04,VALID,1006.46,VALID,0,VALID,84.5433,VALID,385.056,VALID,25.2046,VALID,42,VALID,2.4,
2008-07-13, 09:42:04,VALID,1006.43,VALID,0,VALID,85.6723,VALID,380.329,VALID,25.224,VALID,23,VALID,0.983203,
2008-07-13, 09:43:04,VALID,1006.44,VALID,0,VALID,85.5503,VALID,382.642,VALID,25.2825,VALID,79,VALID,0.955859,
2008-07-13, 09:44:04,VALID,1006.42,VALID,0,VALID,85.2146,VALID,371.58,VALID,25.2806,VALID,39,VALID,1.08672,
2008-07-13, 09:45:04,VALID,1006.46,VALID,0,VALID,83.9787,VALID,347.546,VALID,25.3214,VALID,81,VALID,1.73125,
2008-07-13, 09:46:04,VALID,1006.46,VALID,0,VALID,84.1313,VALID,343.925,VALID,25.263,VALID,59,VALID,2.23906,
2008-07-13, 09:47:04,VALID,1006.38,VALID,0,VALID,85.8096,VALID,338.595,VALID,25.3019,VALID,14,VALID,1.14492,
2008-07-13, 09:48:04,VALID,1006.37,VALID,0,VALID,84.8789,VALID,351.87,VALID,25.3039,VALID,18,VALID,1.55625,
2008-07-13, 09:49:04,VALID,1006.35,VALID,0,VALID,84.8255,VALID,373.29,VALID,25.3214,VALID,76,VALID,1.24219,
2008-07-13, 09:50:04,VALID,1006.34,VALID,0,VALID,84.0169,VALID,369.971,VALID,25.3798,VALID,54,VALID,1.16523,
2008-07-13, 09:51:04,VALID,1006.3,VALID,0,VALID,84.2457,VALID,375.703,VALID,25.4188,VALID,6,VALID,1.24883,
2008-07-13, 09:52:04,VALID,1006.26,VALID,0,VALID,84.7569,VALID,390.184,VALID,25.4577,VALID,38,VALID,1.96406,
2008-07-13, 09:53:04,VALID,1006.24,VALID,0,VALID,84.7187,VALID,395.212,VALID,25.4967,VALID,22,VALID,1.74375,
2008-07-13, 09:54:04,VALID,1006.21,VALID,0,VALID,84.8866,VALID,387.871,VALID,25.5571,VALID,58,VALID,1.0043,
2008-07-13, 09:55:04,VALID,1006.18,VALID,0,VALID,83.1853,VALID,382.743,VALID,25.5181,VALID,26,VALID,2.15273,
2008-07-13, 09:56:04,VALID,1006.16,VALID,0,VALID,83.8795,VALID,373.994,VALID,25.5162,VALID,92,VALID,1.50625,
2008-07-13, 09:57:04,VALID,1006.15,VALID,0,VALID,84.528,VALID,370.273,VALID,25.4967,VALID,63,VALID,1.33906,
2008-07-13, 09:58:04,VALID,1006.08,VALID,0,VALID,84.5585,VALID,368.764,VALID,25.5162,VALID,31,VALID,1.475,
2008-07-13, 09:59:04,VALID,1006.03,VALID,0,VALID,84.6806,VALID,368.262,VALID,25.5746,VALID,66,VALID,1.62422,
2008-07-13, 10:00:04,VALID,1006.04,VALID,0,VALID,85.0086,VALID,371.781,VALID,25.6525,VALID,37,VALID,1.39883,
2008-07-13, 10:01:04,VALID,1005.96,VALID,0,VALID,83.5286,VALID,370.776,VALID,25.6525,VALID,99,VALID,1.67266,
2008-07-13, 10:02:04,VALID,1005.91,VALID,0,VALID,82.7352,VALID,368.764,VALID,25.672,VALID,30,VALID,2.28945,
2008-07-13, 10:03:04,VALID,1005.88,VALID,0,VALID,83.9329,VALID,376.809,VALID,25.6915,VALID,4,VALID,1.93008,
2008-07-13, 10:04:04,VALID,1005.85,VALID,0,VALID,83.109,VALID,381.837,VALID,25.8083,VALID,356,VALID,1.06406,
2008-07-13, 10:05:04,VALID,1005.88,VALID,0,VALID,83.9253,VALID,389.279,VALID,25.8882,VALID,76,VALID,0.944141,
2008-07-13, 10:06:04,VALID,1005.86,VALID,0,VALID,83.6659,VALID,386.061,VALID,25.9836,VALID,38,VALID,0.752344,
2008-07-13, 10:07:04,VALID,1005.84,VALID,0,VALID,82.5521,VALID,374.396,VALID,26.0226,VALID,61,VALID,0.992578,
2008-07-13, 10:08:04,VALID,1005.76,VALID,0,VALID,84.2457,VALID,378.016,VALID,26.1005,VALID,52,VALID,0.822266,
2008-07-13, 10:09:04,VALID,1005.83,VALID,0,VALID,83.3913,VALID,367.155,VALID,26.2194,VALID,106,VALID,1.03008,
2008-07-13, 10:10:04,VALID,1005.83,VALID,0,VALID,81.9342,VALID,352.976,VALID,26.2973,VALID,89,VALID,0.746094,
2008-07-13, 10:11:04,VALID,1005.81,VALID,0,VALID,81.9647,VALID,345.534,VALID,26.3363,VALID,11,VALID,1.75,
2008-07-13, 10:12:04,VALID,1005.84,VALID,0,VALID,81.6214,VALID,342.015,VALID,26.3148,VALID,33,VALID,1.32656,
2008-07-13, 10:13:04,VALID,1005.84,VALID,0,VALID,82.2851,VALID,340.808,VALID,26.3363,VALID,51,VALID,0.724609,
2008-07-13, 10:14:04,VALID,1005.83,VALID,0,VALID,80.7746,VALID,339.702,VALID,26.2759,VALID,64,VALID,1.58438,
2008-07-13, 10:15:04,VALID,1005.86,VALID,0,VALID,81.6519,VALID,339.299,VALID,26.2973,VALID,73,VALID,1.01367,
2008-07-13, 10:16:04,VALID,1005.89,VALID,0,VALID,81.3162,VALID,339.098,VALID,26.3148,VALID,38,VALID,1.38984,
2008-07-13, 10:17:04,VALID,1005.91,VALID,0,VALID,81.4002,VALID,336.886,VALID,26.3343,VALID,86,VALID,1.29883,
2008-07-13, 10:18:04,VALID,1005.91,VALID,0,VALID,80.7898,VALID,334.673,VALID,26.3947,VALID,62,VALID,1.90508,
2008-07-13, 10:19:04,VALID,1005.9,VALID,0,VALID,81.6443,VALID,331.958,VALID,26.3733,VALID,49,VALID,1.09883,
2008-07-13, 10:20:04,VALID,1005.91,VALID,0,VALID,81.5985,VALID,330.953,VALID,26.4142,VALID,79,VALID,1.03906,
2008-07-13, 10:21:04,VALID,1005.88,VALID,0,VALID,81.6061,VALID,331.556,VALID,26.3927,VALID,32,VALID,0.817187,
2008-07-13, 10:22:04,VALID,1005.88,VALID,0,VALID,81.1637,VALID,334.171,VALID,26.4532,VALID,77,VALID,1.06836,
2008-07-13, 10:23:04,VALID,1005.91,VALID,0,VALID,81.5604,VALID,338.193,VALID,26.4317,VALID,109,VALID,1.69375,
2008-07-13, 10:24:04,VALID,1005.89,VALID,0,VALID,80.5457,VALID,343.422,VALID,26.4337,VALID,94,VALID,1.53086,
2008-07-13, 10:25:04,VALID,1005.86,VALID,0,VALID,81.3086,VALID,348.953,VALID,26.3947,VALID,89,VALID,1.01875,
2008-07-13, 10:26:05,VALID,1005.88,VALID,0,VALID,81.7969,VALID,352.473,VALID,26.3733,VALID,80,VALID,0.944531,
2008-07-13, 10:27:05,VALID,1005.94,VALID,0,VALID,82.514,VALID,357.501,VALID,26.5291,VALID,60,VALID,0.296094,
2008-07-13, 10:28:05,VALID,1005.95,VALID,0,VALID,82.4301,VALID,363.535,VALID,26.5855,VALID,94,VALID,0.374609,
2008-07-13, 10:29:05,VALID,1005.95,VALID,0,VALID,81.0034,VALID,387.67,VALID,26.7045,VALID,316,VALID,0.502344,
2008-07-13, 10:30:05,VALID,1005.93,VALID,0,VALID,80.416,VALID,402.755,VALID,26.7414,VALID,98,VALID,1.49063,
2008-07-13, 10:31:05,VALID,1005.94,VALID,0,VALID,80.0956,VALID,398.933,VALID,26.7434,VALID,56,VALID,0.971875,
2008-07-13, 10:32:05,VALID,1005.93,VALID,0,VALID,80.7517,VALID,439.158,VALID,26.8408,VALID,58,VALID,0.717188,
2008-07-13, 10:33:05,VALID,1005.95,VALID,0,VALID,81.0645,VALID,451.226,VALID,26.9772,VALID,102,VALID,1.23789,
2008-07-13, 10:34:05,VALID,1005.91,VALID,0,VALID,80.3703,VALID,438.756,VALID,26.9772,VALID,131,VALID,0.901172,
2008-07-13, 10:35:05,VALID,1005.88,VALID,0,VALID,78.4707,VALID,411.101,VALID,26.9793,VALID,159,VALID,1.49727,
2008-07-13, 10:36:05,VALID,1005.87,VALID,0,VALID,77.8222,VALID,424.778,VALID,26.9403,VALID,131,VALID,1.63789,
2008-07-13, 10:37:05,VALID,1005.84,VALID,0,VALID,79.7294,VALID,430.409,VALID,26.9188,VALID,144,VALID,0.928125,
2008-07-13, 10:38:05,VALID,1005.83,VALID,0,VALID,79.287,VALID,350.562,VALID,26.8993,VALID,115,VALID,1.40273,
2008-07-13, 10:39:05,VALID,1005.8,VALID,0,VALID,79.6913,VALID,342.316,VALID,26.8624,VALID,105,VALID,1.23125,
2008-07-13, 10:40:05,VALID,1005.75,VALID,0,VALID,80.5305,VALID,390.788,VALID,26.8408,VALID,94,VALID,0.829297,
2008-07-13, 10:41:05,VALID,1005.72,VALID,0,VALID,80.2635,VALID,367.457,VALID,26.8408,VALID,104,VALID,0.990234,
2008-07-13, 10:42:05,VALID,1005.73,VALID,0,VALID,81.2323,VALID,365.144,VALID,26.8603,VALID,99,VALID,0.941797,
2008-07-13, 10:43:05,VALID,1005.7,VALID,0,VALID,79.3556,VALID,410.397,VALID,26.8973,VALID,135,VALID,1.45273,
2008-07-13, 10:44:05,VALID,1005.71,VALID,0,VALID,79.1573,VALID,423.068,VALID,26.9578,VALID,90,VALID,1.14883,
2008-07-13, 10:45:05,VALID,1005.65,VALID,0,VALID,79.6684,VALID,465.305,VALID,26.9967,VALID,154,VALID,1.04297,
2008-07-13, 10:46:05,VALID,1005.66,VALID,0,VALID,78.6004,VALID,458.466,VALID,26.9772,VALID,87,VALID,2.50312,
2008-07-13, 10:47:05,VALID,1005.67,VALID,0,VALID,79.1725,VALID,403.056,VALID,27.0183,VALID,127,VALID,2.61055,
2008-07-13, 10:48:05,VALID,1005.65,VALID,0,VALID,79.4548,VALID,424.476,VALID,27.0552,VALID,130,VALID,1.39844,
2008-07-13, 10:49:05,VALID,1005.65,VALID,0,VALID,78.875,VALID,395.112,VALID,27.0921,VALID,103,VALID,1.37773,
2008-07-13, 10:50:05,VALID,1005.68,VALID,0,VALID,78.73,VALID,435.136,VALID,27.1116,VALID,128,VALID,2.14609,